Weather History for KHYA - November, 2011

Change the Weather History Date:

Tuesday, November 8, 2011

  Actual Average Record
Temperature  
Mean Temperature 55 °F -  
Max Temperature 66 °F - - ()
Min Temperature 44 °F - - ()
Degree Days  
Heating Degree Days 10    
Growing Degree Days 5 (Base 50)    
Moisture  
Dew Point 45 °F    
Average Humidity 74    
Maximum Humidity 93    
Minimum Humidity 44    
Precipitation  
Precipitation 0.00 in - - ()
Sea Level Pressure  
Sea Level Pressure 30.22 in    
Wind  
Wind Speed 4 mph (West)    
Max Wind Speed 9 mph    
Max Gust Speed -    
Visibility 9 miles    
Events      
T = Trace of Precipitation, MM = Missing Value Source: NWS Daily Summary

Daily Weather History Graph

Daily Weather History Graph

Search for Another Location

Airport or City:

Trip Planner

Search our weather history database for the weather conditions in past years. The results will help you decide how hot, cold, wet, or windy it might be!

Date:

Astronomy

Nov. 08, 2011 Rise Set
Actual Time 6:21 AM EST 4:27 PM EST
Civil Twilight 5:51 AM EST 4:57 PM EST
Nautical Twilight 5:18 AM EST 5:30 PM EST
Astronomical Twilight 4:46 AM EST 6:02 PM EST
Moon 3:06 PM EST (11/8) 4:16 AM EST (11/8)
Length of Visible Light 11h 05m
Length of Day
10h 06m
Waxing Gibbous, 96% of the Moon is Illuminated
Nov 8
Waxing Gibbous
Nov 10
Full
Nov 18
Last Quarter
Nov 25
New
Dec 2
First Quarter

Hourly Weather History & Observations

Time (EST) Temp. Dew Point Humidity Pressure Visibility Wind Dir Wind Speed Gust Speed Precip Events Conditions
12:56 AM 50.0 °F 45.0 °F 83% 30.20 in 10.0 mi West 6.9 mph - N/A   Clear
1:56 AM 52.0 °F 44.1 °F 74% 30.20 in 10.0 mi West 9.2 mph - N/A   Clear
2:56 AM 51.1 °F 44.1 °F 77% 30.19 in 10.0 mi WSW 5.8 mph - N/A   Clear
3:56 AM 48.9 °F 45.0 °F 86% 30.20 in 10.0 mi SW 3.5 mph - N/A   Clear
4:56 AM 50.0 °F 46.9 °F 89% 30.22 in 10.0 mi West 3.5 mph - N/A   Clear
5:56 AM 48.0 °F 46.0 °F 93% 30.22 in 9.0 mi Calm Calm - N/A   Clear
6:56 AM 45.0 °F 43.0 °F 93% 30.24 in 7.0 mi Calm Calm - N/A   Clear
7:56 AM 55.0 °F 48.9 °F 80% 30.25 in 10.0 mi Calm Calm - N/A   Clear
8:56 AM 60.1 °F 46.9 °F 62% 30.25 in 10.0 mi NNW 5.8 mph - N/A   Clear
9:56 AM 64.0 °F 46.9 °F 54% 30.24 in 10.0 mi Calm Calm - N/A   Clear
10:13 AM 64.4 °F 46.4 °F 52% 30.23 in 1.2 mi NNE 3.5 mph - N/A   Haze
10:16 AM 64.4 °F 46.4 °F 52% 30.23 in 5.0 mi North 4.6 mph - N/A   Haze
10:56 AM 64.9 °F 46.9 °F 52% 30.24 in - North - - N/A   Unknown
11:56 AM 64.9 °F 46.0 °F 50% 30.22 in - North 5.8 mph - N/A   Unknown
12:56 PM 66.0 °F 44.1 °F 45% 30.21 in 10.0 mi NNE 5.8 mph - N/A   Clear
1:56 PM 66.9 °F 44.1 °F 44% 30.19 in 10.0 mi Calm Calm - N/A   Clear
2:56 PM 63.0 °F 46.9 °F 56% 30.20 in 9.0 mi South 6.9 mph - N/A   Clear
3:56 PM 60.1 °F 46.9 °F 62% 30.20 in 10.0 mi SSW 3.5 mph - N/A   Clear
4:56 PM 53.1 °F 46.9 °F 80% 30.21 in 10.0 mi SSW 3.5 mph - N/A   Clear
5:56 PM 51.1 °F 46.0 °F 83% 30.22 in 10.0 mi Calm Calm - N/A   Clear
6:56 PM 48.0 °F 45.0 °F 89% 30.24 in 10.0 mi Calm Calm - N/A   Clear
7:56 PM 46.9 °F 44.1 °F 90% 30.24 in 8.0 mi Calm Calm - N/A   Clear
8:56 PM 46.9 °F 44.1 °F 90% 30.25 in 8.0 mi Calm Calm - N/A   Clear
9:56 PM 44.6 °F 42.8 °F 93% 30.23 in 8.0 mi Calm Calm - N/A   Clear
10:56 PM 44.1 °F 42.1 °F 93% 30.23 in 9.0 mi Calm Calm - N/A   Clear
11:56 PM 44.1 °F 42.1 °F 93% 30.22 in 10.0 mi Calm Calm - N/A   Clear